| time (UTC) | temp F | wind direction | speed MPH | gust MPH | rain 1hr in | rain 24hr in | rain mn in | humidity % | barometer mb |
| 20260506111559 | 34 | 9 | 1.0 | 3.0 | 0.00 | 0.00 | 0.00 | 78 | 1012.7 |
| 20260506110057 | 33 | 9 | 0.0 | 2.0 | 0.00 | 0.00 | 0.00 | 85 | 1012.5 |
| 20260506104555 | 31 | 9 | 0.0 | 0.0 | 0.00 | 0.00 | 0.00 | 86 | 1012.2 |
| 20260506103055 | 31 | 9 | 0.0 | 2.0 | 0.00 | 0.00 | 0.00 | 85 | 1012.3 |
| 20260506101554 | 31 | 9 | 1.0 | 3.0 | 0.00 | 0.00 | 0.00 | 86 | 1012.2 |
| 20260506100051 | 32 | 9 | 1.0 | 3.0 | 0.00 | 0.00 | 0.00 | 86 | 1012.3 |
| 20260506094549 | 33 | 9 | 1.0 | 2.0 | 0.00 | 0.00 | 0.00 | 84 | 1012.2 |
| 20260506093048 | 34 | 9 | 0.0 | 0.0 | 0.00 | 0.00 | 0.00 | 83 | 1012.2 |
| 20260506091543 | 35 | 9 | 0.0 | 0.0 | 0.00 | 0.00 | 0.00 | 83 | 1012.2 |
| 20260506090043 | 35 | 9 | 0.0 | 1.0 | 0.00 | 0.00 | 0.00 | 82 | 1012.2 |
| 20260506084539 | 35 | 9 | 0.0 | 0.0 | 0.00 | 0.00 | 0.00 | 81 | 1012.2 |
| 20260506083043 | 36 | 9 | 0.0 | 0.0 | 0.00 | 0.00 | 0.00 | 79 | 1012.2 |
| 20260506081537 | 36 | 9 | 0.0 | 4.0 | 0.00 | 0.00 | 0.00 | 79 | 1012.2 |
| 20260506073033 | 37 | 40 | 1.0 | 6.0 | 0.00 | 0.00 | 0.00 | 74 | 1012.1 |
| 20260506071539 | 37 | 28 | 0.0 | 6.0 | 0.00 | 0.00 | 0.00 | 73 | 1012.2 |
| 20260506061533 | 37 | 27 | 2.0 | 7.0 | 0.00 | 0.00 | 0.00 | 73 | 1012.2 |
| 20260506044522 | 38 | 18 | 4.0 | 10.0 | 0.00 | 0.00 | 0.00 | 78 | 1011.5 |
| 20260506043017 | 38 | 30 | 3.0 | 9.0 | 0.00 | 0.00 | 0.00 | 78 | 1011.6 |
| 20260506041513 | 38 | 327 | 4.0 | 13.0 | 0.00 | 0.00 | 0.00 | 77 | 1011.6 |
| 20260506040014 | 38 | 5 | 4.0 | 8.0 | 0.00 | 0.00 | 0.00 | 76 | 1011.4 |
| 20260506034508 | 38 | 5 | 3.0 | 12.0 | 0.00 | 0.00 | 0.00 | 77 | 1011.3 |
| 20260506033007 | 38 | 67 | 3.0 | 9.0 | 0.00 | 0.00 | 0.00 | 76 | 1011.1 |
| 20260506031510 | 39 | 55 | 3.0 | 12.0 | 0.00 | 0.00 | 0.00 | 76 | 1010.8 |
| 20260506030002 | 39 | 22 | 5.0 | 10.0 | 0.00 | 0.00 | 0.00 | 77 | 1010.7 |
| 20260506024600 | 39 | 349 | 4.0 | 8.0 | 0.00 | 0.00 | 0.00 | 77 | 1010.6 |
| 20260506023058 | 39 | 30 | 5.0 | 10.0 | 0.00 | 0.00 | 0.00 | 77 | 1010.3 |
| 20260506021603 | 40 | 25 | 3.0 | 16.0 | 0.00 | 0.00 | 0.00 | 76 | 1010.2 |
| 20260506020052 | 40 | 44 | 4.0 | 10.0 | 0.00 | 0.00 | 0.00 | 75 | 1010.0 |
| 20260506014558 | 41 | 47 | 6.0 | 13.0 | 0.00 | 0.00 | 0.00 | 74 | 1009.9 |
| 20260506013050 | 42 | 74 | 2.0 | 10.0 | 0.00 | 0.00 | 0.00 | 73 | 1009.7 |
| 20260506011553 | 42 | 44 | 2.0 | 5.0 | 0.00 | 0.00 | 0.00 | 74 | 1009.4 |
| 20260506010044 | 42 | 323 | 2.0 | 5.0 | 0.00 | 0.01 | 0.00 | 74 | 1009.1 |
| 20260506004618 | 43 | 355 | 1.0 | 9.0 | 0.00 | 0.01 | 0.00 | 72 | 1008.8 |
| 20260506003042 | 46 | 313 | 6.0 | 21.0 | 0.00 | 0.01 | 0.00 | 66 | 1008.8 |
| 20260506001540 | 49 | 232 | 2.0 | 7.0 | 0.00 | 0.01 | 0.00 | 51 | 1008.3 |
| 20260506000041 | 50 | 316 | 3.0 | 9.0 | 0.00 | 0.01 | 0.00 | 47 | 1008.1 |
| 20260505234604 | 51 | 246 | 2.0 | 10.0 | 0.00 | 0.01 | 0.00 | 43 | 1007.8 |
| 20260505233036 | 53 | 231 | 2.0 | 11.0 | 0.00 | 0.01 | 0.00 | 40 | 1007.8 |
| 20260505231536 | 54 | 196 | 0.0 | 10.0 | 0.00 | 0.01 | 0.00 | 39 | 1007.6 |
| 20260505230035 | 53 | 313 | 5.0 | 13.0 | 0.00 | 0.03 | 0.00 | 38 | 1007.7 |
| 20260505224535 | 54 | 291 | 5.0 | 12.0 | 0.00 | 0.03 | 0.00 | 38 | 1007.7 |
| 20260505223037 | 54 | 202 | 3.0 | 10.0 | 0.00 | 0.03 | 0.00 | 39 | 1007.7 |
| 20260505221533 | 54 | 224 | 3.0 | 17.0 | 0.00 | 0.03 | 0.00 | 41 | 1007.8 |
| 20260505220032 | 54 | 144 | 5.0 | 14.0 | 0.00 | 0.03 | 0.00 | 42 | 1007.7 |
| 20260505214538 | 54 | 232 | 2.0 | 16.0 | 0.00 | 0.03 | 0.00 | 42 | 1007.6 |
| 20260505213030 | 55 | 223 | 5.0 | 13.0 | 0.00 | 0.03 | 0.00 | 41 | 1007.6 |
| 20260505211529 | 54 | 215 | 6.0 | 15.0 | 0.00 | 0.03 | 0.00 | 43 | 1007.7 |
| 20260505210030 | 54 | 181 | 2.0 | 12.0 | 0.00 | 0.03 | 0.00 | 44 | 1007.6 |
| 20260505204529 | 54 | 269 | 10.0 | 21.0 | 0.00 | 0.03 | 0.00 | 43 | 1007.8 |
| 20260505203025 | 53 | 238 | 3.0 | 15.0 | 0.00 | 0.03 | 0.00 | 46 | 1007.7 |
| 20260505201527 | 53 | 239 | 7.0 | 13.0 | 0.00 | 0.03 | 0.00 | 44 | 1007.7 |
| 20260505200025 | 53 | 288 | 7.0 | 20.0 | 0.00 | 0.03 | 0.00 | 45 | 1007.5 |
| 20260505194521 | 52 | 261 | 8.0 | 27.0 | 0.00 | 0.03 | 0.00 | 47 | 1007.4 |
| 20260505193020 | 52 | 320 | 7.0 | 19.0 | 0.00 | 0.03 | 0.00 | 46 | 1007.4 |
| 20260505191521 | 52 | 202 | 6.0 | 25.0 | 0.00 | 0.03 | 0.00 | 46 | 1007.7 |
| 20260505190022 | 51 | 267 | 12.0 | 25.0 | 0.00 | 0.03 | 0.00 | 46 | 1007.5 |
| 20260505184524 | 52 | 240 | 6.0 | 18.0 | 0.00 | 0.03 | 0.00 | 47 | 1007.5 |
| 20260505183037 | 53 | 269 | 10.0 | 23.0 | 0.00 | 0.03 | 0.00 | 45 | 1007.4 |
| 20260505181514 | 52 | 190 | 7.0 | 20.0 | 0.00 | 0.03 | 0.00 | 46 | 1007.1 |
| 20260505180012 | 51 | 302 | 10.0 | 20.0 | 0.00 | 0.03 | 0.00 | 48 | 1006.7 |
| 20260505174511 | 51 | 233 | 7.0 | 16.0 | 0.00 | 0.03 | 0.00 | 48 | 1006.6 |
| 20260505173019 | 51 | 237 | 5.0 | 21.0 | 0.00 | 0.03 | 0.00 | 49 | 1006.5 |
| 20260505171509 | 51 | 188 | 10.0 | 17.0 | 0.00 | 0.03 | 0.00 | 48 | 1006.4 |
| 20260505170010 | 51 | 282 | 3.0 | 14.0 | 0.00 | 0.03 | 0.00 | 52 | 1006.3 |
| 20260505164506 | 49 | 298 | 7.0 | 18.0 | 0.00 | 0.03 | 0.00 | 52 | 1006.4 |
| 20260505163005 | 50 | 291 | 7.0 | 23.0 | 0.00 | 0.03 | 0.00 | 54 | 1006.4 |
| 20260505161504 | 49 | 296 | 9.0 | 18.0 | 0.00 | 0.03 | 0.00 | 53 | 1006.3 |
| 20260505153100 | 48 | 239 | 8.0 | 24.0 | 0.00 | 0.03 | 0.00 | 55 | 1006.6 |
| 20260505151606 | 48 | 317 | 7.0 | 17.0 | 0.00 | 0.03 | 0.00 | 55 | 1006.7 |
| 20260505124548 | 45 | 253 | 0.0 | 10.0 | 0.00 | 0.03 | 0.00 | 68 | 1004.7 |
| 20260505123041 | 44 | 237 | 1.0 | 10.0 | 0.00 | 0.03 | 0.00 | 71 | 1004.7 |
| 20260505121542 | 43 | 248 | 0.0 | 5.0 | 0.00 | 0.03 | 0.00 | 74 | 1004.6 |
| 20260505120048 | 43 | 192 | 1.0 | 5.0 | 0.00 | 0.03 | 0.00 | 75 | 1004.5 |
| 20260505114540 | 42 | 241 | 0.0 | 5.0 | 0.00 | 0.03 | 0.00 | 76 | 1004.3 |
| 20260505113036 | 42 | 237 | 0.0 | 2.0 | 0.00 | 0.03 | 0.00 | 76 | 1004.1 |